Portada
METAR-TAF:

METAR-TAF

Aeroports :

Owatonna Degner Regional Airport

Owatonna, Minnesota, Estats Units d'Amèrica

latitud: 44-07N, longitud: 093-15W, altitud: 350 m

Observació

L'informe es va fer fa 29 minuts, a les 02:10 UTC
Vent calma
Temperatura 23°C
Humitat 83%
Pressió 1014 hPa
Visibilitat: 16.1 km
Cel clar

METAR: KOWA 160210Z AUTO 00000KT 10SM CLR 23/20 A2994 RMK AO2

Hora: 21:39 (02:39 UTC)


TAF: manca

Observacions i pronòstics meteorològics de més de 4000 aeroports (METAR i TAF).

Les estacions disponibles són els punts grocs i vermells al mapa.

Posi el ratolí al punt desitjat per veure el nom de l'estació.

Feu clic per veure les observacions i els pronòstics meteorològics.

Per canviar el mapa: feu clic els botons verds amb una creu de color negre per apropar; al botó verd amb un guió per allunyar la imatge; o en les fletxes verdes per a mapes adjacents.


METAR-TAF: